CST,Max TemperatureF,Mean TemperatureF,Min TemperatureF,Max Dew PointF,MeanDew PointF,Min DewpointF,Max Humidity, Mean Humidity, Min Humidity, Max Sea Level PressureIn, Mean Sea Level PressureIn, Min Sea Level PressureIn, Max VisibilityMiles, Mean VisibilityMiles, Min VisibilityMiles, Max Wind SpeedMPH, Mean Wind SpeedMPH, Max Gust SpeedMPH,PrecipitationIn, CloudCover, Events, WindDirDegrees
2012-11-1,42,34,26,32,25,21,87,67,49,30.08,30.00,29.92,10,10,10,18,6,24,0.00,5,,338
2012-11-2,37,27,17,25,22,16,93,71,52,30.19,30.14,30.09,10,10,10,6,1,,0.00,3,,54
2012-11-3,37,34,32,27,25,21,80,70,60,30.25,30.22,30.19,10,10,10,7,3,,0.00,8,,85
2012-11-4,44,37,30,28,26,23,87,69,52,30.25,30.22,30.17,10,10,10,8,3,,0.00,8,,73
2012-11-5,39,36,32,36,28,25,93,76,70,30.23,30.14,29.91,10,10,3,12,5,,0.00,8,,109
2012-11-6,41,36,32,36,33,32,100,88,70,29.98,29.82,29.73,10,8,2,14,9,18,0.16,8,Rain-Snow,281
2012-11-7,44,40,35,34,32,30,87,81,66,30.10,30.06,29.98,10,10,10,8,3,,0.00,7,Rain,179
2012-11-8,50,41,32,34,31,28,100,77,50,30.05,29.98,29.92,10,10,5,13,6,17,0.00,0,,193
2012-11-9,41,36,30,36,32,30,100,84,70,30.11,30.06,29.99,10,9,4,13,5,22,0.00,7,,65
2012-11-10,50,42,35,50,38,32,100,92,81,29.99,29.70,29.47,10,4,1,14,10,26,0.19,8,Rain-Thunderstorm,86
2012-11-11,50,36,21,50,27,12,100,81,63,29.88,29.72,29.48,10,9,3,18,10,24,0.00,8,Rain-Snow,263
2012-11-12,26,22,17,14,13,10,86,70,59,30.24,30.01,29.87,10,10,7,18,10,24,0.00,8,Snow,266
2012-11-13,37,26,14,27,19,12,93,72,48,30.34,30.29,30.25,10,10,10,12,4,,0.00,3,,192
2012-11-14,46,36,26,30,27,25,93,73,50,30.26,30.21,30.14,10,10,7,10,2,,0.00,3,,180
2012-11-15,44,32,19,32,22,10,100,68,36,30.47,30.26,30.11,10,9,2,16,3,23,0.00,2,,325
2012-11-16,37,26,14,23,16,10,93,65,38,30.50,30.43,30.31,10,10,10,9,1,,0.00,0,,145
2012-11-17,55,40,26,36,31,21,87,66,41,30.31,30.24,30.18,10,10,7,16,6,24,0.00,2,,166
2012-11-18,53,48,42,34,32,30,61,56,41,30.19,30.11,30.07,10,10,10,14,9,22,0.00,2,,161
2012-11-19,53,42,32,36,33,28,93,71,51,30.09,30.05,30.02,10,10,5,9,3,,0.00,4,,161
2012-11-20,50,36,23,34,28,23,100,78,37,30.17,30.12,30.03,10,8,0,8,2,,0.00,0,Fog,276
2012-11-21,53,40,26,39,31,23,93,76,47,30.02,29.87,29.66,10,9,4,7,2,,0.00,0,,154
2012-11-22,50,36,21,41,32,16,93,76,58,29.91,29.71,29.58,10,8,0,20,9,28,0.00,4,Rain-Snow,261
2012-11-23,26,19,12,18,14,9,86,73,59,30.36,30.21,29.92,10,8,2,26,16,39,0.00,6,Snow,327
2012-11-24,24,14,3,19,10,0,92,76,68,30.34,30.08,29.80,10,10,10,8,3,,0.00,4,,167
2012-11-25,30,24,19,21,19,10,80,74,59,30.15,29.94,29.80,10,10,4,15,6,21,0.00,8,Snow,303
2012-11-26,19,14,8,9,6,3,79,67,49,30.39,30.32,30.17,10,9,2,12,5,17,0.00,4,Snow,289
2012-11-27,32,24,17,23,15,9,93,74,64,30.30,30.17,30.08,10,10,7,10,6,,0.00,6,Snow,231
2012-11-28,32,26,21,23,19,14,80,73,64,30.31,30.22,30.09,10,10,10,13,7,16,0.00,4,,246
2012-11-29,33,26,19,27,22,16,93,83,74,30.17,30.13,30.07,10,8,4,13,4,20,0.00,4,,65
2012-11-30,32,29,26,30,25,21,93,83,75,30.21,30.15,30.06,10,9,4,10,6,17,0.00,8,,105